FW5198 Weather Reports


Display with metric or nautical units.
time (UTC)temp
F
wind
direction
speed
MPH
gust
MPH
rain 1hr
in
rain 24hr
in
rain mn
in
humidity
%
barometer
mb
20260906231547 89 100 1.0 5.0 0.00 0.00 0.00 58 1012.0
20260906230109 91 137 1.0 5.0 0.00 0.00 0.00 56 1012.0
20260906224554 92 106 0.0 5.0 0.00 0.00 0.00 53 1012.0
20260906223049 93 81 1.0 4.0 0.00 0.00 0.00 51 1011.9
20260906221557 93 252 1.0 4.0 0.00 0.00 0.00 50 1011.9
20260906220044 94 213 1.0 4.0 0.00 0.00 0.00 50 1011.9
20260906214546 95 96 1.0 5.0 0.00 0.00 0.00 48 1011.9
20260906213046 95 122 1.0 4.0 0.00 0.00 0.00 48 1011.9
20260906211552 95 124 2.0 8.0 0.00 0.00 0.00 51 1011.8
20260906210045 96 127 2.0 8.0 0.00 0.00 0.00 48 1011.6
20260906204553 95 108 1.0 7.0 0.00 0.00 0.00 51 1011.6
20260906203046 96 153 1.0 9.0 0.00 0.00 0.00 49 1011.6
20260906201603 96 263 1.0 5.0 0.00 0.00 0.00 49 1011.9
20260906200052 96 231 1.0 8.0 0.00 0.00 0.00 49 1012.1
20260906194549 95 279 2.0 6.0 0.00 0.00 0.00 53 1012.2
20260906193056 95 154 1.0 5.0 0.00 0.00 0.00 55 1012.3
20260906191556 95 127 3.0 10.0 0.00 0.00 0.00 54 1012.7
20260906190052 96 120 2.0 8.0 0.00 0.00 0.00 55 1012.8
20260906184548 96 72 1.0 5.0 0.00 0.00 0.00 57 1012.9
20260906183108 96 201 1.0 7.0 0.00 0.00 0.00 55 1013.0
20260906181553 95 89 2.0 7.0 0.00 0.00 0.00 56 1012.9
20260906180111 95 91 2.0 7.0 0.00 0.00 0.00 57 1013.2
20260906174550 94 0 1.0 4.0 0.00 0.00 0.00 58 1013.2
20260906173048 94 85 2.0 4.0 0.00 0.00 0.00 59 1013.3
20260906171548 94 127 1.0 5.0 0.00 0.00 0.00 60 1013.5
20260906170057 94 91 1.0 8.0 0.00 0.00 0.00 62 1013.8
20260906164553 94 95 2.0 4.0 0.00 0.00 0.00 62 1013.8
20260906163048 93 98 0.0 6.0 0.00 0.00 0.00 64 1013.9
20260906161552 91 124 2.0 8.0 0.00 0.00 0.00 67 1014.0
20260906160049 91 103 1.0 5.0 0.00 0.00 0.00 66 1014.2
20260906154546 89 117 1.0 6.0 0.00 0.00 0.00 70 1014.1
20260906153047 88 20 1.0 9.0 0.00 0.00 0.00 71 1014.0
20260906151545 87 88 2.0 7.0 0.00 0.00 0.00 71 1014.0
20260906150054 87 26 1.0 6.0 0.00 0.00 0.00 72 1013.8
20260906144554 87 63 1.0 4.0 0.00 0.00 0.00 73 1013.8
20260906143046 85 56 1.0 4.0 0.00 0.00 0.00 74 1013.9
20260906141547 85 96 1.0 4.0 0.00 0.00 0.00 74 1013.9
20260906140052 83 103 2.0 5.0 0.00 0.00 0.00 77 1013.8
20260906134551 81 0 0.0 6.0 0.00 0.00 0.00 82 1014.0
20260906133048 79 0 2.0 6.0 0.00 0.00 0.00 85 1013.8
20260906131546 77 34 0.0 3.0 0.00 0.00 0.00 87 1014.0
20260906130054 76 33 1.0 4.0 0.00 0.00 0.00 89 1014.0
20260906124550 75 29 0.0 5.0 0.00 0.00 0.00 91 1014.0
20260906123048 74 52 0.0 4.0 0.00 0.00 0.00 92 1014.0
20260906121554 74 32 1.0 4.0 0.00 0.00 0.00 93 1014.1
20260906120050 73 25 1.0 7.0 0.00 0.00 0.00 94 1013.8
20260906114557 73 46 2.0 6.0 0.00 0.00 0.00 94 1013.5
20260906113054 73 0 1.0 4.0 0.00 0.00 0.00 95 1013.3
20260906111545 73 0 1.0 4.0 0.00 0.00 0.00 95 1013.4
20260906110049 73 41 1.0 3.0 0.00 0.00 0.00 95 1013.2
20260906104548 73 48 0.0 4.0 0.00 0.00 0.00 95 1013.2
20260906103048 73 40 2.0 5.0 0.00 0.00 0.00 93 1013.2
20260906101546 73 39 2.0 4.0 0.00 0.00 0.00 93 1013.1
20260906100050 73 57 2.0 6.0 0.00 0.00 0.00 91 1013.2
20260906094548 73 0 1.0 4.0 0.00 0.00 0.00 91 1013.2
20260906093045 73 30 0.0 2.0 0.00 0.00 0.00 89 1013.1
20260906091550 73 25 0.0 4.0 0.00 0.00 0.00 88 1012.9
20260906090054 74 37 0.0 5.0 0.00 0.00 0.00 87 1012.9
20260906084548 74 39 1.0 4.0 0.00 0.00 0.00 85 1012.8
20260906083053 75 0 0.0 5.0 0.00 0.00 0.00 86 1012.8
20260906081553 75 34 2.0 4.0 0.00 0.00 0.00 86 1012.9
20260906080046 76 0 1.0 4.0 0.00 0.00 0.00 85 1012.8
20260906074604 77 38 0.0 3.0 0.00 0.00 0.00 83 1012.8
20260906073053 78 0 0.0 4.0 0.00 0.00 0.00 81 1013.0
20260906071547 79 0 1.0 5.0 0.00 0.00 0.00 80 1013.0
20260906070055 80 0 1.0 8.0 0.00 0.00 0.00 79 1013.4
20260906064548 80 13 2.0 6.0 0.00 0.00 0.00 82 1013.3
20260906063049 81 1 2.0 7.0 0.00 0.00 0.00 84 1013.2
20260906061550 81 0 0.0 5.0 0.00 0.00 0.00 82 1012.9
20260906060058 80 0 0.0 1.0 0.00 0.00 0.00 87 1012.8
20260906054548 80 0 0.0 1.0 0.00 0.00 0.00 88 1012.8
20260906053046 79 0 0.0 1.0 0.00 0.00 0.00 89 1013.0
20260906051558 78 0 0.0 1.0 0.00 0.00 0.00 92 1012.8
20260906050056 78 0 0.0 1.0 0.00 0.00 0.00 91 1012.8
20260906044551 78 0 0.0 1.0 0.00 0.00 0.00 92 1012.8
20260906043046 78 0 0.0 1.0 0.00 0.00 0.00 91 1012.8
20260906041554 78 0 0.0 1.0 0.00 0.00 0.00 90 1012.7
20260906040050 79 0 0.0 1.0 0.00 0.00 0.00 90 1013.1
20260906034546 79 0 0.0 0.0 0.00 0.00 0.00 90 1013.0
20260906033048 79 0 0.0 1.0 0.00 0.00 0.00 89 1012.8
20260906031600 80 0 0.0 1.0 0.00 0.00 0.00 88 1012.8
20260906030048 80 0 0.0 0.0 0.00 0.00 0.00 89 1012.7
20260906024546 81 0 0.0 1.0 0.00 0.00 0.00 88 1012.4
20260906023050 81 0 0.0 0.0 0.00 0.00 0.00 89 1012.2
20260906021555 81 0 0.0 1.0 0.00 0.00 0.00 88 1011.9
20260906020057 81 0 0.0 1.0 0.00 0.00 0.00 87 1012.1
20260906014546 82 0 0.0 1.0 0.00 0.00 0.00 87 1012.2
20260906013048 83 44 0.0 1.0 0.00 0.00 0.00 86 1012.0
20260906011550 84 44 0.0 1.0 0.00 0.00 0.00 85 1012.0
20260906010047 84 44 0.0 0.0 0.00 0.00 0.00 85 1011.9
20260906004553 85 44 0.0 1.0 0.00 0.00 0.00 82 1011.7
20260906003049 86 44 0.0 1.0 0.00 0.00 0.00 80 1011.9
20260906001548 87 44 0.0 1.0 0.00 0.00 0.00 79 1011.9
20260906000046 89 0 0.0 1.0 0.00 0.00 0.00 75 1011.9
20260905234553 91 44 0.0 1.0 0.00 0.00 0.00 73 1012.1
20260905233049 93 44 0.0 1.0 0.00 0.00 0.00 68 1012.2